sat.trackr.live / text

‹ back to catalog

STARLINK-30364

NORAD 57741 · 2023-131K

PAYLOAD ACTIVE UNKNOWN

§ Identity

Operator
Country
US
Launch date
2023-09-01
Launch site
AFETR
Launch vehicle
Mass (kg)
RCS (m²)

Purposes: comms

External: N2YO · Heavens-Above · Gunter

§ Orbital elements

Epoch: 2026-09-19T03:08:05.441856Z

Period
94.27 min
Inclination
43.0013°
Eccentricity
0.0001136
Mean motion
15.27572094 rev/d
Perigee alt
482.3 km
Apogee alt
483.9 km
Semi-major
6,861.2 km
B*
3.9324e-5
RAAN
159.7547°
Arg perigee
276.3051°
Mean anomaly
83.7671°
Rev number
16,950

§ Raw data

STARLINK-303641 57741U 23131K   26262.13061854  .00000820  00000+0  39324-4 0  99942 57741  43.0013 159.7547 0001136 276.3051  83.7671 15.27572094169505

JSON: /api/v1/satellites/57741 · /tle

For live sub-satellite position, see the globe view (requires WebGL).

§ Visibility from observer

Set your observer location to see the next 7 days of passes ≥ 10°. The values pass through the URL so the page stays shareable.

No JS? Fill the form by hand. The geolocation button needs JavaScript.